This demonstration page uses our WeatherBlox Daily Observations layout. Learn more.

Left ArrowRight Arrow

Hourly Observations for May 3, 2021

Temp ( °F °C ) Dew Point ( °F °C ) Humidity (%) Winds ( mph kmh ) Pressure ( in mb ) Visibility ( mi km ) Precip ( " mm )
12:56 am 00:56 Cloudy with Light Rain 57 13.9 55 12.8 93 93 NE 18 30 29.61 1003 10 16 0.20 5.08
1:56 am 01:56 Cloudy with Light Rain 56 13.3 54 12.2 93 93 N 21 33 29.63 1003 10 16 0.09 2.29
2:56 am 02:56 Mostly Cloudy 54 12.2 51 10.6 90 90 N 22 35 29.63 1003 10 16 0.00 0.00
3:56 am 03:56 Clear 53 11.7 50 10 89 89 N 23 37 29.63 1003 10 16 0.00 0.00
4:56 am 04:56 Cloudy 53 11.7 48 8.9 83 83 NNW 20 31 29.66 1004 10 16 0.00 0.00
5:56 am 05:56 Cloudy 52 11.1 45 7.2 77 77 N 22 35 29.67 1005 10 16 0.00 0.00
6:56 am 06:56 Cloudy 51 10.6 44 6.7 77 77 N 24 39 29.70 1006 10 16 0.00 0.00
7:56 am 07:56 Cloudy 51 10.6 44 6.7 77 77 N 24 39 29.73 1007 10 16 0.00 0.00
8:56 am 08:56 Cloudy 52 11.1 45 7.2 77 77 N 22 35 29.77 1008 10 16 0.00 0.00
9:56 am 09:56 Cloudy 53 11.7 46 7.8 77 77 N 26 43 29.80 1009 10 16 0.00 0.00
10:56 am 10:56 Cloudy 52 11.1 45 7.2 77 77 N 33 54 29.84 1010 10 16 0.00 0.00
11:56 am 11:56 Cloudy 51 10.6 44 6.7 77 77 N 25 41 29.89 1012 10 16 0.00 0.00
12:56 pm 12:56 Cloudy 53 11.7 43 6.1 69 69 N 31 50 29.91 1013 10 16 0.00 0.00
1:56 pm 13:56 Cloudy 55 12.8 43 6.1 64 64 N 31 50 29.90 1013 10 16 0.00 0.00
2:23 pm 14:23 Cloudy 55 13 43 6 63 63 N 32 52 29.89 1012 10 16 0.00 0.00
2:56 pm 14:56 Mostly Cloudy 58 14.4 44 6.7 60 60 N 26 43 29.90 1013 10 16 0.00 0.00
3:56 pm 15:56 Mostly Sunny 58 14.4 42 5.6 56 56 N 28 44 29.89 1012 10 16 0.00 0.00
4:56 pm 16:56 Sunny 59 15 41 5 51 51 N 29 46 29.89 1012 10 16 0.00 0.00
5:56 pm 17:56 Sunny 60 15.6 40 4.4 47 47 N 25 41 29.91 1013 10 16 0.00 0.00
6:56 pm 18:56 Sunny 59 15 36 2.2 42 42 N 23 37 29.93 1014 10 16 0.00 0.00
7:56 pm 19:56 Sunny 56 13.3 33 0.6 42 42 N 20 31 29.96 1014 10 16 0.00 0.00
8:56 pm 20:56 Clear 53 11.7 33 0.6 47 47 N 14 22 29.99 1016 10 16 0.00 0.00
9:56 pm 21:56 Clear 50 10 34 1.1 54 54 N 7 11 30.04 1017 10 16 0.00 0.00
10:56 pm 22:56 Clear 49 9.4 35 1.7 59 59 NNW 9 15 30.06 1018 10 16 0.00 0.00
11:56 pm 23:56 Mostly Cloudy 49 9.4 34 1.1 56 56 N 12 19 30.06 1018 10 16 0.00 0.00

Powered by AerisWeather